Time,TemperatureF,DewpointF,PressureIn,WindDirection,WindDirectionDegrees,WindSpeedMPH,WindSpeedGustMPH,Humidity,HourlyPrecipIn,Conditions,Clouds,dailyrainin,SoftwareType,DateUTC
2013-10-22 00:03:00,59.0,57.3,30.12,North,9,1.0,2.0,94,0.00,,,0.10,Wunderground v.1.15,2013-10-22 05:03:00,
2013-10-22 00:08:00,58.9,57.2,30.12,NW,312,3.0,3.0,94,0.00,,,0.10,Wunderground v.1.15,2013-10-22 05:08:00,
2013-10-22 00:14:00,58.8,57.1,30.12,NNW,333,0.0,1.0,94,0.00,,,0.10,Wunderground v.1.15,2013-10-22 05:14:00,
2013-10-22 00:19:00,58.7,57.0,30.13,West,263,0.0,1.0,94,0.00,,,0.10,Wunderground v.1.15,2013-10-22 05:19:00,
2013-10-22 00:24:00,58.5,56.8,30.12,North,356,1.0,1.0,94,0.00,,,0.10,Wunderground v.1.15,2013-10-22 05:24:00,
2013-10-22 00:29:00,58.4,56.7,30.12,NNE,16,1.0,3.0,94,0.00,,,0.00,Wunderground v.1.15,2013-10-22 05:29:00,
2013-10-22 00:35:00,58.3,56.6,30.12,NW,316,2.0,4.0,94,0.00,,,0.00,Wunderground v.1.15,2013-10-22 05:35:00,
2013-10-22 00:40:00,58.2,56.5,30.12,WSW,255,1.0,1.0,94,0.00,,,0.00,Wunderground v.1.15,2013-10-22 05:40:00,
2013-10-22 00:45:00,58.2,56.5,30.12,NNE,18,0.0,2.0,94,0.00,,,0.00,Wunderground v.1.15,2013-10-22 05:45:00,
2013-10-22 00:50:00,58.1,56.1,30.12,West,270,1.0,1.0,93,0.00,,,0.00,Wunderground v.1.15,2013-10-22 05:50:00,
2013-10-22 00:55:00,58.1,56.1,30.12,WNW,285,2.0,3.0,93,0.00,,,0.00,Wunderground v.1.15,2013-10-22 05:55:00,
2013-10-22 01:00:00,58.0,56.0,30.12,West,280,2.0,2.0,93,0.00,,,0.00,Wunderground v.1.15,2013-10-22 06:00:00,
2013-10-22 01:06:00,57.9,55.9,30.12,WSW,257,0.0,3.0,93,0.00,,,0.00,Wunderground v.1.15,2013-10-22 06:06:00,
2013-10-22 01:11:00,57.8,55.8,30.13,WNW,288,2.0,2.0,93,0.00,,,0.00,Wunderground v.1.15,2013-10-22 06:11:00,
2013-10-22 01:16:00,57.8,55.8,30.13,WNW,283,0.0,3.0,93,0.00,,,0.00,Wunderground v.1.15,2013-10-22 06:16:00,
2013-10-22 01:21:00,57.8,56.1,30.12,North,355,1.0,1.0,94,0.00,,,0.00,Wunderground v.1.15,2013-10-22 06:21:00,
2013-10-22 01:26:00,57.7,56.0,30.12,West,281,0.0,2.0,94,0.00,,,0.00,Wunderground v.1.15,2013-10-22 06:26:00,
2013-10-22 01:31:00,57.7,55.7,30.13,West,259,3.0,3.0,93,0.00,,,0.00,Wunderground v.1.15,2013-10-22 06:31:00,
2013-10-22 01:36:00,57.7,56.0,30.13,WNW,300,2.0,3.0,94,0.00,,,0.00,Wunderground v.1.15,2013-10-22 06:36:00,
2013-10-22 01:41:00,57.6,55.6,30.13,WNW,300,2.0,2.0,93,0.00,,,0.00,Wunderground v.1.15,2013-10-22 06:41:00,
2013-10-22 01:46:00,57.6,55.6,30.13,WNW,297,0.0,2.0,93,0.00,,,0.00,Wunderground v.1.15,2013-10-22 06:46:00,
2013-10-22 01:52:00,57.5,55.5,30.13,West,271,1.0,1.0,93,0.00,,,0.00,Wunderground v.1.15,2013-10-22 06:52:00,
2013-10-22 01:57:00,57.5,55.5,30.12,West,281,0.0,1.0,93,0.00,,,0.00,Wunderground v.1.15,2013-10-22 06:57:00,
2013-10-22 02:02:00,57.5,55.8,30.12,NW,308,1.0,4.0,94,0.00,,,0.00,Wunderground v.1.15,2013-10-22 07:02:00,
2013-10-22 02:07:00,57.4,55.7,30.13,NNW,340,0.0,4.0,94,0.00,,,0.00,Wunderground v.1.15,2013-10-22 07:07:00,
2013-10-22 02:12:00,57.4,55.7,30.13,NW,312,0.0,3.0,94,0.00,,,0.00,Wunderground v.1.15,2013-10-22 07:12:00,
2013-10-22 02:17:00,57.4,55.7,30.13,WNW,294,0.0,3.0,94,0.00,,,0.00,Wunderground v.1.15,2013-10-22 07:17:00,
2013-10-22 02:22:00,57.4,55.7,30.13,NNW,328,1.0,3.0,94,0.00,,,0.00,Wunderground v.1.15,2013-10-22 07:22:00,
2013-10-22 02:27:00,57.4,55.4,30.13,West,279,0.0,6.0,93,0.00,,,0.00,Wunderground v.1.15,2013-10-22 07:27:00,
2013-10-22 02:32:00,57.4,55.7,30.13,NW,312,1.0,3.0,94,0.00,,,0.00,Wunderground v.1.15,2013-10-22 07:32:00,
2013-10-22 02:37:00,57.3,55.6,30.13,WNW,287,1.0,3.0,94,0.00,,,0.00,Wunderground v.1.15,2013-10-22 07:37:00,
2013-10-22 02:42:00,57.3,55.6,30.13,NNE,15,0.0,3.0,94,0.00,,,0.00,Wunderground v.1.15,2013-10-22 07:42:00,
2013-10-22 02:47:00,57.2,55.5,30.14,West,266,2.0,3.0,94,0.00,,,0.00,Wunderground v.1.15,2013-10-22 07:47:00,
2013-10-22 02:53:00,57.3,55.6,30.13,WNW,300,1.0,2.0,94,0.00,,,0.00,Wunderground v.1.15,2013-10-22 07:53:00,
2013-10-22 02:58:00,57.2,55.5,30.13,WSW,255,0.0,3.0,94,0.00,,,0.00,Wunderground v.1.15,2013-10-22 07:58:00,
2013-10-22 03:03:00,57.2,55.5,30.14,West,278,1.0,5.0,94,0.00,,,0.00,Wunderground v.1.15,2013-10-22 08:03:00,
2013-10-22 03:08:00,57.2,55.5,30.14,NW,304,1.0,5.0,94,0.00,,,0.00,Wunderground v.1.15,2013-10-22 08:08:00,
2013-10-22 03:13:00,57.2,55.5,30.14,North,354,2.0,5.0,94,0.00,,,0.00,Wunderground v.1.15,2013-10-22 08:13:00,
2013-10-22 03:18:00,57.1,55.4,30.14,WNW,287,2.0,6.0,94,0.00,,,0.00,Wunderground v.1.15,2013-10-22 08:18:00,
2013-10-22 03:23:00,57.1,55.4,30.13,West,270,4.0,5.0,94,0.00,,,0.00,Wunderground v.1.15,2013-10-22 08:23:00,
2013-10-22 03:28:00,57.0,55.0,30.13,WSW,253,2.0,7.0,93,0.00,,,0.00,Wunderground v.1.15,2013-10-22 08:28:00,
2013-10-22 03:33:00,56.9,54.9,30.13,WNW,291,3.0,5.0,93,0.00,,,0.00,Wunderground v.1.15,2013-10-22 08:33:00,
2013-10-22 03:38:00,56.8,54.8,30.13,NNW,341,1.0,6.0,93,0.00,,,0.00,Wunderground v.1.15,2013-10-22 08:38:00,
2013-10-22 03:43:00,56.7,54.7,30.13,WNW,297,2.0,4.0,93,0.00,,,0.00,Wunderground v.1.15,2013-10-22 08:43:00,
2013-10-22 03:48:00,56.6,54.6,30.13,SW,231,1.0,6.0,93,0.00,,,0.00,Wunderground v.1.15,2013-10-22 08:48:00,
2013-10-22 03:53:00,56.6,54.6,30.13,SSE,153,1.0,3.0,93,0.00,,,0.00,Wunderground v.1.15,2013-10-22 08:53:00,
2013-10-22 03:58:00,56.5,54.5,30.13,NNW,327,1.0,5.0,93,0.00,,,0.00,Wunderground v.1.15,2013-10-22 08:58:00,
2013-10-22 04:03:00,56.4,54.4,30.13,NW,318,2.0,7.0,93,0.00,,,0.00,Wunderground v.1.15,2013-10-22 09:03:00,
2013-10-22 04:08:00,56.3,54.3,30.13,WNW,291,3.0,7.0,93,0.00,,,0.00,Wunderground v.1.15,2013-10-22 09:08:00,
2013-10-22 04:13:00,56.3,54.3,30.13,SW,229,1.0,8.0,93,0.00,,,0.00,Wunderground v.1.15,2013-10-22 09:13:00,
2013-10-22 04:18:00,56.2,54.2,30.13,WNW,297,0.0,8.0,93,0.00,,,0.00,Wunderground v.1.15,2013-10-22 09:18:00,
2013-10-22 04:23:00,56.1,54.1,30.13,NW,324,2.0,4.0,93,0.00,,,0.00,Wunderground v.1.15,2013-10-22 09:23:00,
2013-10-22 04:28:00,56.0,54.0,30.13,WSW,253,4.0,5.0,93,0.00,,,0.00,Wunderground v.1.15,2013-10-22 09:28:00,
2013-10-22 04:33:00,56.0,54.0,30.13,WSW,238,1.0,3.0,93,0.00,,,0.00,Wunderground v.1.15,2013-10-22 09:33:00,
2013-10-22 04:38:00,55.9,53.9,30.13,North,354,2.0,5.0,93,0.00,,,0.00,Wunderground v.1.15,2013-10-22 09:38:00,
2013-10-22 04:43:00,55.9,53.9,30.13,NW,304,2.0,4.0,93,0.00,,,0.00,Wunderground v.1.15,2013-10-22 09:43:00,
2013-10-22 04:48:00,55.8,53.8,30.13,NNW,345,0.0,5.0,93,0.00,,,0.00,Wunderground v.1.15,2013-10-22 09:48:00,
2013-10-22 04:53:00,55.8,53.8,30.14,NW,315,2.0,3.0,93,0.00,,,0.00,Wunderground v.1.15,2013-10-22 09:53:00,
2013-10-22 04:58:00,55.7,53.7,30.14,WNW,300,3.0,6.0,93,0.00,,,0.00,Wunderground v.1.15,2013-10-22 09:58:00,
2013-10-22 05:03:00,55.7,53.7,30.14,West,267,0.0,3.0,93,0.00,,,0.00,Wunderground v.1.15,2013-10-22 10:03:00,
2013-10-22 05:09:00,55.7,53.7,30.14,NW,324,2.0,7.0,93,0.00,,,0.00,Wunderground v.1.15,2013-10-22 10:09:00,
2013-10-22 05:15:00,55.6,53.6,30.14,NE,39,1.0,2.0,93,0.00,,,0.00,Wunderground v.1.15,2013-10-22 10:15:00,
2013-10-22 05:20:00,55.6,53.3,30.15,NNW,328,0.0,2.0,92,0.00,,,0.00,Wunderground v.1.15,2013-10-22 10:20:00,
2013-10-22 05:25:00,55.5,53.2,30.15,WSW,240,2.0,4.0,92,0.00,,,0.00,Wunderground v.1.15,2013-10-22 10:25:00,
2013-10-22 05:30:00,55.5,53.2,30.15,SW,226,3.0,3.0,92,0.00,,,0.00,Wunderground v.1.15,2013-10-22 10:30:00,
2013-10-22 05:35:00,55.5,53.5,30.15,WSW,240,1.0,3.0,93,0.00,,,0.00,Wunderground v.1.15,2013-10-22 10:35:00,
2013-10-22 05:40:00,55.5,53.5,30.15,NNW,336,1.0,5.0,93,0.00,,,0.00,Wunderground v.1.15,2013-10-22 10:40:00,
2013-10-22 05:45:00,55.4,53.4,30.15,North,4,0.0,5.0,93,0.00,,,0.00,Wunderground v.1.15,2013-10-22 10:45:00,
2013-10-22 05:50:00,55.4,53.4,30.15,East,96,2.0,4.0,93,0.00,,,0.00,Wunderground v.1.15,2013-10-22 10:50:00,
2013-10-22 05:55:00,55.4,53.4,30.15,NW,311,1.0,6.0,93,0.00,,,0.00,Wunderground v.1.15,2013-10-22 10:55:00,
2013-10-22 06:00:00,55.4,53.4,30.16,North,360,1.0,2.0,93,0.00,,,0.00,Wunderground v.1.15,2013-10-22 11:00:00,
2013-10-22 06:05:00,55.3,53.3,30.16,NW,319,2.0,3.0,93,0.00,,,0.00,Wunderground v.1.15,2013-10-22 11:05:00,
2013-10-22 06:10:00,55.3,53.3,30.16,NNE,12,0.0,1.0,93,0.00,,,0.00,Wunderground v.1.15,2013-10-22 11:10:00,
2013-10-22 06:15:00,55.2,53.2,30.16,NW,311,0.0,4.0,93,0.00,,,0.00,Wunderground v.1.15,2013-10-22 11:15:00,
2013-10-22 06:20:00,55.1,53.1,30.16,NW,314,3.0,3.0,93,0.00,,,0.00,Wunderground v.1.15,2013-10-22 11:20:00,
2013-10-22 06:25:00,55.0,53.0,30.16,NNW,345,1.0,4.0,93,0.00,,,0.00,Wunderground v.1.15,2013-10-22 11:25:00,
2013-10-22 06:31:00,54.9,52.9,30.16,NW,309,1.0,5.0,93,0.00,,,0.00,Wunderground v.1.15,2013-10-22 11:31:00,
2013-10-22 06:36:00,54.9,52.9,30.16,WNW,288,0.0,5.0,93,0.00,,,0.00,Wunderground v.1.15,2013-10-22 11:36:00,
2013-10-22 06:41:00,54.7,52.7,30.16,WNW,299,0.0,1.0,93,0.00,,,0.00,Wunderground v.1.15,2013-10-22 11:41:00,
2013-10-22 06:46:00,54.5,52.5,30.16,NW,304,0.0,3.0,93,0.00,,,0.00,Wunderground v.1.15,2013-10-22 11:46:00,
2013-10-22 06:51:00,54.3,52.3,30.16,NW,307,1.0,2.0,93,0.00,,,0.00,Wunderground v.1.15,2013-10-22 11:51:00,
2013-10-22 06:56:00,54.1,52.1,30.16,North,356,0.0,2.0,93,0.00,,,0.00,Wunderground v.1.15,2013-10-22 11:56:00,
2013-10-22 07:01:00,53.9,51.9,30.16,NNW,339,0.0,0.0,93,0.00,,,0.00,Wunderground v.1.15,2013-10-22 12:01:00,
2013-10-22 07:06:00,53.6,51.6,30.17,NW,322,0.0,2.0,93,0.00,,,0.00,Wunderground v.1.15,2013-10-22 12:06:00,
2013-10-22 07:11:00,53.3,51.3,30.17,NW,321,0.0,0.0,93,0.00,,,0.00,Wunderground v.1.15,2013-10-22 12:11:00,
2013-10-22 07:16:00,52.9,51.2,30.17,NW,321,0.0,0.0,94,0.00,,,0.00,Wunderground v.1.15,2013-10-22 12:16:00,
2013-10-22 07:21:00,52.5,50.5,30.17,NW,322,0.0,0.0,93,0.00,,,0.00,Wunderground v.1.15,2013-10-22 12:21:00,
2013-10-22 07:26:00,52.1,50.1,30.17,NW,321,0.0,0.0,93,0.00,,,0.00,Wunderground v.1.15,2013-10-22 12:26:00,
2013-10-22 07:31:00,51.6,49.9,30.17,NW,321,0.0,0.0,94,0.00,,,0.00,Wunderground v.1.15,2013-10-22 12:31:00,
2013-10-22 07:36:00,51.2,49.5,30.17,NW,321,0.0,0.0,94,0.00,,,0.00,Wunderground v.1.15,2013-10-22 12:36:00,
2013-10-22 07:41:00,51.0,49.6,30.17,NW,321,0.0,0.0,95,0.00,,,0.00,Wunderground v.1.15,2013-10-22 12:41:00,
2013-10-22 07:46:00,50.8,49.4,30.17,NW,321,0.0,0.0,95,0.00,,,0.00,Wunderground v.1.15,2013-10-22 12:46:00,
2013-10-22 07:51:00,50.9,49.8,30.18,NW,322,0.0,0.0,96,0.00,,,0.00,Wunderground v.1.15,2013-10-22 12:51:00,
2013-10-22 07:57:00,51.2,50.1,30.18,NW,321,0.0,0.0,96,0.00,,,0.00,Wunderground v.1.15,2013-10-22 12:57:00,
2013-10-22 08:02:00,51.6,50.5,30.18,NW,319,0.0,0.0,96,0.00,,,0.00,Wunderground v.1.15,2013-10-22 13:02:00,
2013-10-22 08:07:00,52.2,51.4,30.18,West,259,0.0,3.0,97,0.00,,,0.00,Wunderground v.1.15,2013-10-22 13:07:00,
2013-10-22 08:12:00,52.8,51.7,30.18,WSW,253,0.0,0.0,96,0.00,,,0.00,Wunderground v.1.15,2013-10-22 13:12:00,
2013-10-22 08:17:00,53.1,52.0,30.18,WSW,255,0.0,2.0,96,0.00,,,0.00,Wunderground v.1.15,2013-10-22 13:17:00,
2013-10-22 08:22:00,53.2,52.1,30.19,NW,315,2.0,5.0,96,0.00,,,0.00,Wunderground v.1.15,2013-10-22 13:22:00,
2013-10-22 08:27:00,53.3,52.2,30.19,WNW,295,2.0,5.0,96,0.00,,,0.00,Wunderground v.1.15,2013-10-22 13:27:00,
2013-10-22 08:32:00,53.4,52.3,30.19,North,349,2.0,2.0,96,0.00,,,0.00,Wunderground v.1.15,2013-10-22 13:32:00,
2013-10-22 08:37:00,53.5,52.4,30.19,NNW,343,0.0,4.0,96,0.00,,,0.00,Wunderground v.1.15,2013-10-22 13:37:00,
2013-10-22 08:42:00,53.7,52.3,30.20,West,276,0.0,5.0,95,0.00,,,0.00,Wunderground v.1.15,2013-10-22 13:42:00,
2013-10-22 08:47:00,53.8,52.4,30.20,NW,312,2.0,5.0,95,0.00,,,0.00,Wunderground v.1.15,2013-10-22 13:47:00,
2013-10-22 08:52:00,54.0,52.6,30.19,WSW,249,0.0,1.0,95,0.00,,,0.00,Wunderground v.1.15,2013-10-22 13:52:00,
2013-10-22 08:57:00,53.9,52.2,30.20,WNW,285,4.0,5.0,94,0.00,,,0.00,Wunderground v.1.15,2013-10-22 13:57:00,
2013-10-22 09:02:00,53.9,52.2,30.20,NW,317,1.0,4.0,94,0.00,,,0.00,Wunderground v.1.15,2013-10-22 14:02:00,
2013-10-22 09:07:00,54.1,52.4,30.20,NW,321,2.0,4.0,94,0.00,,,0.00,Wunderground v.1.15,2013-10-22 14:07:00,
2013-10-22 09:12:00,54.3,52.6,30.20,WNW,291,0.0,2.0,94,0.00,,,0.00,Wunderground v.1.15,2013-10-22 14:12:00,
2013-10-22 09:17:00,54.3,52.6,30.20,West,279,1.0,4.0,94,0.00,,,0.00,Wunderground v.1.15,2013-10-22 14:17:00,
2013-10-22 09:22:00,54.2,52.2,30.20,NW,310,0.0,3.0,93,0.00,,,0.00,Wunderground v.1.15,2013-10-22 14:22:00,
2013-10-22 09:27:00,54.4,52.7,30.20,WSW,250,4.0,4.0,94,0.00,,,0.00,Wunderground v.1.15,2013-10-22 14:27:00,
2013-10-22 09:32:00,54.6,52.6,30.21,West,263,1.0,3.0,93,0.00,,,0.00,Wunderground v.1.15,2013-10-22 14:32:00,
2013-10-22 09:37:00,54.7,52.4,30.21,WNW,291,0.0,5.0,92,0.00,,,0.00,Wunderground v.1.15,2013-10-22 14:37:00,
2013-10-22 09:42:00,54.9,52.6,30.21,NW,324,3.0,6.0,92,0.00,,,0.00,Wunderground v.1.15,2013-10-22 14:42:00,
2013-10-22 09:47:00,54.7,52.1,30.21,SW,232,2.0,6.0,91,0.00,,,0.00,Wunderground v.1.15,2013-10-22 14:47:00,
2013-10-22 09:52:00,54.7,52.1,30.21,West,271,3.0,3.0,91,0.00,,,0.00,Wunderground v.1.15,2013-10-22 14:52:00,
2013-10-22 09:57:00,55.3,52.7,30.21,West,269,1.0,5.0,91,0.00,,,0.00,Wunderground v.1.15,2013-10-22 14:57:00,
2013-10-22 10:02:00,56.2,53.3,30.21,NNE,18,1.0,4.0,90,0.00,,,0.00,Wunderground v.1.15,2013-10-22 15:02:00,
2013-10-22 10:07:00,56.8,53.3,30.21,WNW,283,1.0,5.0,88,0.00,,,0.00,Wunderground v.1.15,2013-10-22 15:07:00,
2013-10-22 10:12:00,57.2,53.7,30.21,West,281,2.0,5.0,88,0.00,,,0.00,Wunderground v.1.15,2013-10-22 15:12:00,
2013-10-22 10:17:00,57.8,53.6,30.21,West,279,2.0,5.0,86,0.00,,,0.00,Wunderground v.1.15,2013-10-22 15:17:00,
2013-10-22 10:22:00,58.4,54.2,30.21,NW,313,1.0,3.0,86,0.00,,,0.00,Wunderground v.1.15,2013-10-22 15:22:00,
2013-10-22 10:27:00,59.0,53.8,30.21,NW,304,1.0,5.0,83,0.00,,,0.00,Wunderground v.1.15,2013-10-22 15:27:00,
2013-10-22 10:32:00,59.1,53.9,30.21,SW,224,4.0,6.0,83,0.00,,,0.00,Wunderground v.1.15,2013-10-22 15:32:00,
2013-10-22 10:37:00,59.2,53.7,30.21,NNE,27,2.0,6.0,82,0.00,,,0.00,Wunderground v.1.15,2013-10-22 15:37:00,
2013-10-22 10:42:00,59.5,54.7,30.21,NNW,335,1.0,3.0,84,0.00,,,0.00,Wunderground v.1.15,2013-10-22 15:42:00,
2013-10-22 10:47:00,60.3,54.8,30.21,North,355,2.0,3.0,82,0.00,,,0.00,Wunderground v.1.15,2013-10-22 15:47:00,
2013-10-22 10:52:00,60.8,53.5,30.21,NNE,23,3.0,6.0,77,0.00,,,0.00,Wunderground v.1.15,2013-10-22 15:52:00,
2013-10-22 10:57:00,61.0,53.7,30.21,WSW,246,1.0,6.0,77,0.00,,,0.00,Wunderground v.1.15,2013-10-22 15:57:00,
2013-10-22 11:02:00,61.6,54.7,30.21,WNW,302,3.0,4.0,78,0.00,,,0.00,Wunderground v.1.15,2013-10-22 16:02:00,
2013-10-22 11:07:00,62.1,54.8,30.21,NNW,339,3.0,4.0,77,0.00,,,0.00,Wunderground v.1.15,2013-10-22 16:07:00,
2013-10-22 11:12:00,62.6,54.2,30.21,NNE,15,3.0,6.0,74,0.00,,,0.00,Wunderground v.1.15,2013-10-22 16:12:00,
2013-10-22 11:17:00,63.2,53.6,30.20,North,349,1.0,6.0,71,0.00,,,0.00,Wunderground v.1.15,2013-10-22 16:17:00,
2013-10-22 11:22:00,63.9,53.9,30.20,West,262,1.0,5.0,70,0.00,,,0.00,Wunderground v.1.15,2013-10-22 16:22:00,
2013-10-22 11:27:00,64.0,53.6,30.20,NW,322,2.0,6.0,69,0.00,,,0.00,Wunderground v.1.15,2013-10-22 16:27:00,
2013-10-22 11:32:00,64.2,53.8,30.20,West,259,2.0,4.0,69,0.00,,,0.00,Wunderground v.1.15,2013-10-22 16:32:00,
2013-10-22 11:38:00,64.5,53.7,30.20,WNW,283,3.0,7.0,68,0.00,,,0.00,Wunderground v.1.15,2013-10-22 16:38:00,
2013-10-22 11:43:00,64.7,52.2,30.20,North,349,3.0,8.0,64,0.00,,,0.00,Wunderground v.1.15,2013-10-22 16:43:00,
2013-10-22 11:48:00,65.2,52.3,30.20,SW,231,2.0,8.0,63,0.00,,,0.00,Wunderground v.1.15,2013-10-22 16:48:00,
2013-10-22 11:53:00,65.5,49.9,30.20,WNW,302,2.0,7.0,57,0.00,,,0.00,Wunderground v.1.15,2013-10-22 16:53:00,
2013-10-22 11:58:00,66.1,52.3,30.20,North,8,5.0,7.0,61,0.00,,,0.00,Wunderground v.1.15,2013-10-22 16:58:00,
2013-10-22 12:03:00,66.3,51.1,30.20,NNW,336,2.0,6.0,58,0.00,,,0.00,Wunderground v.1.15,2013-10-22 17:03:00,
2013-10-22 12:08:00,66.3,52.0,30.20,NW,322,4.0,7.0,60,0.00,,,0.00,Wunderground v.1.15,2013-10-22 17:08:00,
2013-10-22 12:13:00,66.4,51.6,30.19,WNW,285,2.0,8.0,59,0.00,,,0.00,Wunderground v.1.15,2013-10-22 17:13:00,
2013-10-22 12:18:00,66.6,49.4,30.19,NW,312,2.0,9.0,54,0.00,,,0.00,Wunderground v.1.15,2013-10-22 17:18:00,
2013-10-22 12:23:00,66.7,51.0,30.19,WNW,294,6.0,6.0,57,0.00,,,0.00,Wunderground v.1.15,2013-10-22 17:23:00,
2013-10-22 12:28:00,67.0,49.8,30.19,SW,224,1.0,8.0,54,0.00,,,0.00,Wunderground v.1.15,2013-10-22 17:28:00,
2013-10-22 12:33:00,67.0,49.3,30.19,North,354,3.0,6.0,53,0.00,,,0.00,Wunderground v.1.15,2013-10-22 17:33:00,
2013-10-22 12:38:00,67.2,51.0,30.19,WSW,257,3.0,6.0,56,0.00,,,0.00,Wunderground v.1.15,2013-10-22 17:38:00,
2013-10-22 12:43:00,67.6,50.4,30.19,NW,308,2.0,7.0,54,0.00,,,0.00,Wunderground v.1.15,2013-10-22 17:43:00,
2013-10-22 12:48:00,67.7,50.5,30.18,WNW,293,4.0,7.0,54,0.00,,,0.00,Wunderground v.1.15,2013-10-22 17:48:00,
2013-10-22 12:53:00,67.8,49.5,30.19,West,276,5.0,8.0,52,0.00,,,0.00,Wunderground v.1.15,2013-10-22 17:53:00,
2013-10-22 12:58:00,68.0,49.2,30.18,East,95,3.0,8.0,51,0.00,,,0.00,Wunderground v.1.15,2013-10-22 17:58:00,
2013-10-22 13:03:00,68.1,47.7,30.18,WNW,285,5.0,9.0,48,0.00,,,0.00,Wunderground v.1.15,2013-10-22 18:03:00,
2013-10-22 13:08:00,68.1,47.7,30.18,NE,55,3.0,9.0,48,0.00,,,0.00,Wunderground v.1.15,2013-10-22 18:08:00,
2013-10-22 13:13:00,68.5,48.6,30.18,WNW,288,3.0,6.0,49,0.00,,,0.00,Wunderground v.1.15,2013-10-22 18:13:00,
2013-10-22 13:18:00,68.4,47.9,30.18,WSW,255,5.0,8.0,48,0.00,,,0.00,Wunderground v.1.15,2013-10-22 18:18:00,
2013-10-22 13:23:00,68.7,48.2,30.18,WNW,291,3.0,6.0,48,0.00,,,0.00,Wunderground v.1.15,2013-10-22 18:23:00,
2013-10-22 13:28:00,69.1,50.2,30.17,WNW,285,4.0,6.0,51,0.00,,,0.00,Wunderground v.1.15,2013-10-22 18:28:00,
2013-10-22 13:33:00,69.3,48.8,30.17,NW,316,0.0,5.0,48,0.00,,,0.00,Wunderground v.1.15,2013-10-22 18:33:00,
2013-10-22 13:38:00,69.6,50.7,30.17,West,270,2.0,6.0,51,0.00,,,0.00,Wunderground v.1.15,2013-10-22 18:38:00,
2013-10-22 13:43:00,70.1,50.0,30.17,NW,312,1.0,6.0,49,0.00,,,0.00,Wunderground v.1.15,2013-10-22 18:43:00,
2013-10-22 13:48:00,70.3,48.5,30.16,West,274,1.0,6.0,46,0.00,,,0.00,Wunderground v.1.15,2013-10-22 18:48:00,
2013-10-22 13:53:00,70.5,49.3,30.16,ENE,78,3.0,6.0,47,0.00,,,0.00,Wunderground v.1.15,2013-10-22 18:53:00,
2013-10-22 13:58:00,70.6,49.4,30.16,NNW,328,2.0,6.0,47,0.00,,,0.00,Wunderground v.1.15,2013-10-22 18:58:00,
2013-10-22 14:03:00,70.6,47.6,30.16,WSW,238,2.0,6.0,44,0.00,,,0.00,Wunderground v.1.15,2013-10-22 19:03:00,
2013-10-22 14:08:00,70.6,47.6,30.16,NW,309,2.0,6.0,44,0.00,,,0.00,Wunderground v.1.15,2013-10-22 19:08:00,
2013-10-22 14:13:00,70.7,48.3,30.15,NW,304,0.0,5.0,45,0.00,,,0.00,Wunderground v.1.15,2013-10-22 19:13:00,
2013-10-22 14:18:00,71.3,48.3,30.15,West,274,4.0,5.0,44,0.00,,,0.00,Wunderground v.1.15,2013-10-22 19:18:00,
2013-10-22 14:23:00,71.4,47.7,30.15,ENE,58,2.0,5.0,43,0.00,,,0.00,Wunderground v.1.15,2013-10-22 19:23:00,
2013-10-22 14:28:00,71.3,48.3,30.15,West,274,1.0,5.0,44,0.00,,,0.00,Wunderground v.1.15,2013-10-22 19:28:00,
2013-10-22 14:33:00,71.4,47.7,30.15,NW,323,2.0,5.0,43,0.00,,,0.00,Wunderground v.1.15,2013-10-22 19:33:00,
2013-10-22 14:38:00,71.5,47.2,30.14,WSW,253,1.0,5.0,42,0.00,,,0.00,Wunderground v.1.15,2013-10-22 19:38:00,
2013-10-22 14:44:00,71.4,47.7,30.14,NNW,330,2.0,5.0,43,0.00,,,0.00,Wunderground v.1.15,2013-10-22 19:44:00,
2013-10-22 14:49:00,71.6,50.9,30.14,North,353,1.0,5.0,48,0.00,,,0.00,Wunderground v.1.15,2013-10-22 19:49:00,
2013-10-22 14:54:00,71.8,47.5,30.14,North,9,2.0,5.0,42,0.00,,,0.00,Wunderground v.1.15,2013-10-22 19:54:00,
2013-10-22 14:59:00,71.8,46.8,30.14,West,275,1.0,5.0,41,0.00,,,0.00,Wunderground v.1.15,2013-10-22 19:59:00,
2013-10-22 15:04:00,71.7,48.0,30.14,NNW,339,1.0,6.0,43,0.00,,,0.00,Wunderground v.1.15,2013-10-22 20:04:00,
2013-10-22 15:09:00,71.7,46.1,30.14,WSW,247,4.0,10.0,40,0.00,,,0.00,Wunderground v.1.15,2013-10-22 20:09:00,
2013-10-22 15:14:00,71.7,46.7,30.14,WSW,252,2.0,5.0,41,0.00,,,0.00,Wunderground v.1.15,2013-10-22 20:14:00,
2013-10-22 15:19:00,71.8,45.5,30.14,WSW,238,1.0,5.0,39,0.00,,,0.00,Wunderground v.1.15,2013-10-22 20:19:00,
2013-10-22 15:24:00,72.2,48.5,30.14,North,357,1.0,3.0,43,0.00,,,0.00,Wunderground v.1.15,2013-10-22 20:24:00,
2013-10-22 15:29:00,72.3,45.9,30.14,West,267,1.0,4.0,39,0.00,,,0.00,Wunderground v.1.15,2013-10-22 20:29:00,
2013-10-22 15:34:00,72.4,46.0,30.14,South,172,1.0,2.0,39,0.00,,,0.00,Wunderground v.1.15,2013-10-22 20:34:00,
2013-10-22 15:39:00,72.8,45.7,30.14,WSW,247,2.0,3.0,38,0.00,,,0.00,Wunderground v.1.15,2013-10-22 20:39:00,
2013-10-22 15:44:00,72.8,48.4,30.14,NE,42,1.0,6.0,42,0.00,,,0.00,Wunderground v.1.15,2013-10-22 20:44:00,
2013-10-22 15:49:00,72.7,45.6,30.13,West,276,1.0,6.0,38,0.00,,,0.00,Wunderground v.1.15,2013-10-22 20:49:00,
2013-10-22 15:54:00,72.7,46.3,30.13,WNW,302,0.0,5.0,39,0.00,,,0.00,Wunderground v.1.15,2013-10-22 20:54:00,
2013-10-22 15:59:00,72.6,45.5,30.13,WNW,285,1.0,5.0,38,0.00,,,0.00,Wunderground v.1.15,2013-10-22 20:59:00,
2013-10-22 16:04:00,72.7,46.3,30.13,WSW,255,2.0,3.0,39,0.00,,,0.00,Wunderground v.1.15,2013-10-22 21:04:00,
2013-10-22 16:09:00,72.6,46.2,30.13,North,5,2.0,5.0,39,0.00,,,0.00,Wunderground v.1.15,2013-10-22 21:09:00,
2013-10-22 16:14:00,72.3,45.9,30.13,West,270,3.0,5.0,39,0.00,,,0.00,Wunderground v.1.15,2013-10-22 21:14:00,
2013-10-22 16:19:00,72.2,47.2,30.13,WNW,285,0.0,2.0,41,0.00,,,0.00,Wunderground v.1.15,2013-10-22 21:19:00,
2013-10-22 16:24:00,72.7,48.9,30.13,West,279,1.0,2.0,43,0.00,,,0.00,Wunderground v.1.15,2013-10-22 21:24:00,
2013-10-22 16:29:00,72.6,48.2,30.13,West,260,2.0,6.0,42,0.00,,,0.00,Wunderground v.1.15,2013-10-22 21:29:00,
2013-10-22 16:34:00,72.5,46.8,30.13,NNW,339,2.0,3.0,40,0.00,,,0.00,Wunderground v.1.15,2013-10-22 21:34:00,
2013-10-22 16:39:00,72.7,49.5,30.13,WNW,293,1.0,5.0,44,0.00,,,0.00,Wunderground v.1.15,2013-10-22 21:39:00,
2013-10-22 16:44:00,72.4,46.7,30.13,WNW,295,2.0,6.0,40,0.00,,,0.00,Wunderground v.1.15,2013-10-22 21:44:00,
2013-10-22 16:50:00,72.1,47.1,30.13,WSW,251,2.0,2.0,41,0.00,,,0.00,Wunderground v.1.15,2013-10-22 21:50:00,
2013-10-22 16:55:00,72.2,47.2,30.13,West,276,2.0,3.0,41,0.00,,,0.00,Wunderground v.1.15,2013-10-22 21:55:00,
2013-10-22 17:00:00,71.9,46.3,30.12,South,191,1.0,2.0,40,0.00,,,0.00,Wunderground v.1.15,2013-10-22 22:00:00,
2013-10-22 17:05:00,71.9,46.3,30.12,NNW,330,1.0,2.0,40,0.00,,,0.00,Wunderground v.1.15,2013-10-22 22:05:00,
2013-10-22 17:10:00,72.1,49.6,30.12,SW,236,0.0,1.0,45,0.00,,,0.00,Wunderground v.1.15,2013-10-22 22:10:00,
2013-10-22 17:15:00,72.3,49.8,30.12,WSW,252,0.0,2.0,45,0.00,,,0.00,Wunderground v.1.15,2013-10-22 22:15:00,
2013-10-22 17:20:00,72.1,47.1,30.12,West,277,0.0,1.0,41,0.00,,,0.00,Wunderground v.1.15,2013-10-22 22:20:00,
2013-10-22 17:25:00,72.1,47.7,30.12,West,271,0.0,2.0,42,0.00,,,0.00,Wunderground v.1.15,2013-10-22 22:25:00,
2013-10-22 17:30:00,72.4,51.6,30.12,West,272,0.0,0.0,48,0.00,,,0.00,Wunderground v.1.15,2013-10-22 22:30:00,
2013-10-22 17:35:00,72.3,47.3,30.12,West,268,0.0,2.0,41,0.00,,,0.00,Wunderground v.1.15,2013-10-22 22:35:00,
2013-10-22 17:40:00,71.9,51.1,30.11,West,273,0.0,1.0,48,0.00,,,0.00,Wunderground v.1.15,2013-10-22 22:40:00,
2013-10-22 17:45:00,71.5,50.8,30.11,WSW,243,0.0,2.0,48,0.00,,,0.00,Wunderground v.1.15,2013-10-22 22:45:00,
2013-10-22 17:50:00,70.7,50.6,30.11,WSW,243,0.0,0.0,49,0.00,,,0.00,Wunderground v.1.15,2013-10-22 22:50:00,
2013-10-22 17:55:00,69.6,52.2,30.11,WSW,243,0.0,0.0,54,0.00,,,0.00,Wunderground v.1.15,2013-10-22 22:55:00,
2013-10-22 18:00:00,68.4,52.6,30.11,WSW,243,0.0,0.0,57,0.00,,,0.00,Wunderground v.1.15,2013-10-22 23:00:00,
2013-10-22 18:05:00,67.2,52.8,30.11,WSW,243,0.0,0.0,60,0.00,,,0.00,Wunderground v.1.15,2013-10-22 23:05:00,
2013-10-22 18:10:00,65.9,52.5,30.11,WSW,243,0.0,0.0,62,0.00,,,0.00,Wunderground v.1.15,2013-10-22 23:10:00,
2013-10-22 18:15:00,64.5,52.0,30.11,WSW,243,0.0,0.0,64,0.00,,,0.00,Wunderground v.1.15,2013-10-22 23:15:00,
2013-10-22 18:20:00,63.3,51.7,30.11,WSW,243,0.0,0.0,66,0.00,,,0.00,Wunderground v.1.15,2013-10-22 23:20:00,
2013-10-22 18:25:00,62.1,51.4,30.11,WSW,243,0.0,0.0,68,0.00,,,0.00,Wunderground v.1.15,2013-10-22 23:25:00,
2013-10-22 18:30:00,60.9,51.0,30.12,WSW,243,0.0,0.0,70,0.00,,,0.00,Wunderground v.1.15,2013-10-22 23:30:00,
2013-10-22 18:35:00,59.9,51.2,30.12,WSW,243,0.0,0.0,73,0.00,,,0.00,Wunderground v.1.15,2013-10-22 23:35:00,
2013-10-22 18:40:00,58.9,51.0,30.12,WSW,243,0.0,0.0,75,0.00,,,0.00,Wunderground v.1.15,2013-10-22 23:40:00,
2013-10-22 18:45:00,58.0,50.8,30.12,WSW,243,0.0,0.0,77,0.00,,,0.00,Wunderground v.1.15,2013-10-22 23:45:00,
2013-10-22 18:50:00,57.2,50.4,30.12,WSW,243,0.0,0.0,78,0.00,,,0.00,Wunderground v.1.15,2013-10-22 23:50:00,
2013-10-22 18:55:00,56.4,50.3,30.12,WSW,243,0.0,0.0,80,0.00,,,0.00,Wunderground v.1.15,2013-10-22 23:55:00,
2013-10-22 19:01:00,55.7,50.3,30.12,WSW,243,0.0,0.0,82,0.00,,,0.00,Wunderground v.1.15,2013-10-23 00:01:00,
2013-10-22 19:06:00,55.1,50.0,30.12,WSW,243,0.0,0.0,83,0.00,,,0.00,Wunderground v.1.15,2013-10-23 00:06:00,
2013-10-22 19:11:00,54.5,49.4,30.12,WSW,243,0.0,0.0,83,0.00,,,0.00,Wunderground v.1.15,2013-10-23 00:11:00,
2013-10-22 19:16:00,54.0,49.6,30.12,WSW,243,0.0,0.0,85,0.00,,,0.00,Wunderground v.1.15,2013-10-23 00:16:00,
2013-10-22 19:21:00,53.6,49.5,30.12,WSW,243,0.0,0.0,86,0.00,,,0.00,Wunderground v.1.15,2013-10-23 00:21:00,
2013-10-22 19:26:00,53.2,49.1,30.12,WSW,243,0.0,0.0,86,0.00,,,0.00,Wunderground v.1.15,2013-10-23 00:26:00,
2013-10-22 19:31:00,52.9,49.1,30.12,WSW,243,0.0,0.0,87,0.00,,,0.00,Wunderground v.1.15,2013-10-23 00:31:00,
2013-10-22 19:36:00,52.6,49.1,30.12,WSW,243,0.0,0.0,88,0.00,,,0.00,Wunderground v.1.15,2013-10-23 00:36:00,
2013-10-22 19:41:00,52.3,48.9,30.12,WSW,243,0.0,0.0,88,0.00,,,0.00,Wunderground v.1.15,2013-10-23 00:41:00,
2013-10-22 19:46:00,52.1,49.0,30.13,WSW,243,0.0,0.0,89,0.00,,,0.00,Wunderground v.1.15,2013-10-23 00:46:00,
2013-10-22 19:51:00,51.8,48.7,30.13,WSW,243,0.0,0.0,89,0.00,,,0.00,Wunderground v.1.15,2013-10-23 00:51:00,
2013-10-22 19:56:00,51.7,48.9,30.13,WSW,243,0.0,1.0,90,0.00,,,0.00,Wunderground v.1.15,2013-10-23 00:56:00,
2013-10-22 20:01:00,51.6,48.8,30.13,WSW,243,0.0,0.0,90,0.00,,,0.00,Wunderground v.1.15,2013-10-23 01:01:00,
2013-10-22 20:06:00,51.5,48.7,30.13,WSW,243,0.0,0.0,90,0.00,,,0.00,Wunderground v.1.15,2013-10-23 01:06:00,
2013-10-22 20:11:00,51.3,48.5,30.13,WSW,243,0.0,0.0,90,0.00,,,0.00,Wunderground v.1.15,2013-10-23 01:11:00,
2013-10-22 20:16:00,51.4,48.9,30.13,WSW,243,0.0,0.0,91,0.00,,,0.00,Wunderground v.1.15,2013-10-23 01:16:00,
2013-10-22 20:21:00,51.4,48.9,30.13,WSW,243,0.0,1.0,91,0.00,,,0.00,Wunderground v.1.15,2013-10-23 01:21:00,
2013-10-22 20:26:00,51.5,49.0,30.13,WSW,243,0.0,1.0,91,0.00,,,0.00,Wunderground v.1.15,2013-10-23 01:26:00,
2013-10-22 20:31:00,51.6,49.1,30.13,WSW,243,0.0,0.0,91,0.00,,,0.00,Wunderground v.1.15,2013-10-23 01:31:00,
2013-10-22 20:36:00,51.5,48.7,30.13,WSW,243,0.0,0.0,90,0.00,,,0.00,Wunderground v.1.15,2013-10-23 01:36:00,
2013-10-22 20:41:00,51.4,48.6,30.13,WSW,252,0.0,1.0,90,0.00,,,0.00,Wunderground v.1.15,2013-10-23 01:41:00,
2013-10-22 20:47:00,51.6,49.1,30.13,WSW,252,0.0,1.0,91,0.00,,,0.00,Wunderground v.1.15,2013-10-23 01:47:00,
2013-10-22 20:51:00,51.7,48.9,30.13,WSW,252,0.0,0.0,90,0.00,,,0.00,Wunderground v.1.15,2013-10-23 01:51:00,
2013-10-22 20:57:00,51.8,49.0,30.13,WSW,250,0.0,0.0,90,0.00,,,0.00,Wunderground v.1.15,2013-10-23 01:57:00,
2013-10-22 21:02:00,51.8,49.0,30.14,WSW,250,0.0,0.0,90,0.00,,,0.00,Wunderground v.1.15,2013-10-23 02:02:00,
2013-10-22 21:07:00,51.6,48.8,30.14,WSW,250,0.0,0.0,90,0.00,,,0.00,Wunderground v.1.15,2013-10-23 02:07:00,
2013-10-22 21:12:00,51.5,48.7,30.14,WSW,250,0.0,1.0,90,0.00,,,0.00,Wunderground v.1.15,2013-10-23 02:12:00,
2013-10-22 21:17:00,51.4,48.6,30.14,WSW,250,0.0,1.0,90,0.00,,,0.00,Wunderground v.1.15,2013-10-23 02:17:00,
2013-10-22 21:22:00,51.2,48.4,30.14,WSW,250,0.0,0.0,90,0.00,,,0.00,Wunderground v.1.15,2013-10-23 02:22:00,
2013-10-22 21:27:00,51.0,48.2,30.14,WSW,250,0.0,0.0,90,0.00,,,0.00,Wunderground v.1.15,2013-10-23 02:27:00,
2013-10-22 21:32:00,50.8,48.3,30.14,WSW,250,0.0,0.0,91,0.00,,,0.00,Wunderground v.1.15,2013-10-23 02:32:00,
2013-10-22 21:37:00,50.6,48.1,30.14,WSW,250,0.0,0.0,91,0.00,,,0.00,Wunderground v.1.15,2013-10-23 02:37:00,
2013-10-22 21:42:00,50.6,48.4,30.14,WSW,252,0.0,1.0,92,0.00,,,0.00,Wunderground v.1.15,2013-10-23 02:42:00,
2013-10-22 21:47:00,50.5,48.6,30.14,WSW,252,0.0,1.0,93,0.00,,,0.00,Wunderground v.1.15,2013-10-23 02:47:00,
2013-10-22 21:52:00,50.5,48.6,30.14,WSW,252,0.0,0.0,93,0.00,,,0.00,Wunderground v.1.15,2013-10-23 02:52:00,
2013-10-22 21:57:00,50.4,48.5,30.14,WSW,252,0.0,0.0,93,0.00,,,0.00,Wunderground v.1.15,2013-10-23 02:57:00,
2013-10-22 22:02:00,50.3,48.4,30.14,WSW,251,0.0,0.0,93,0.00,,,0.00,Wunderground v.1.15,2013-10-23 03:02:00,
2013-10-22 22:07:00,50.3,48.4,30.14,WSW,249,0.0,0.0,93,0.00,,,0.00,Wunderground v.1.15,2013-10-23 03:07:00,
2013-10-22 22:12:00,50.2,48.3,30.14,WSW,249,0.0,0.0,93,0.00,,,0.00,Wunderground v.1.15,2013-10-23 03:12:00,
2013-10-22 22:17:00,50.0,48.1,30.15,WSW,249,0.0,0.0,93,0.00,,,0.00,Wunderground v.1.15,2013-10-23 03:17:00,
2013-10-22 22:22:00,49.8,47.9,30.15,WSW,249,0.0,0.0,93,0.00,,,0.00,Wunderground v.1.15,2013-10-23 03:22:00,
2013-10-22 22:27:00,49.7,48.0,30.14,WSW,249,0.0,0.0,94,0.00,,,0.00,Wunderground v.1.15,2013-10-23 03:27:00,
2013-10-22 22:32:00,49.7,48.0,30.15,WSW,249,0.0,0.0,94,0.00,,,0.00,Wunderground v.1.15,2013-10-23 03:32:00,
2013-10-22 22:37:00,49.6,47.9,30.15,WSW,249,0.0,0.0,94,0.00,,,0.00,Wunderground v.1.15,2013-10-23 03:37:00,
2013-10-22 22:42:00,49.5,47.8,30.15,WSW,249,0.0,0.0,94,0.00,,,0.00,Wunderground v.1.15,2013-10-23 03:42:00,
2013-10-22 22:47:00,49.4,47.7,30.15,WSW,249,0.0,0.0,94,0.00,,,0.00,Wunderground v.1.15,2013-10-23 03:47:00,
2013-10-22 22:52:00,49.3,47.6,30.15,WSW,249,0.0,0.0,94,0.00,,,0.00,Wunderground v.1.15,2013-10-23 03:52:00,
2013-10-22 22:57:00,49.2,47.5,30.15,WSW,249,0.0,0.0,94,0.00,,,0.00,Wunderground v.1.15,2013-10-23 03:57:00,
2013-10-22 23:01:00,49.1,47.4,30.15,WSW,249,0.0,0.0,94,0.00,,,0.00,Wunderground v.1.15,2013-10-23 04:01:00,
2013-10-22 23:03:00,49.1,47.4,30.15,WSW,249,0.0,0.0,94,0.00,,,0.00,Wunderground v.1.15,2013-10-23 04:03:00,
2013-10-22 23:08:00,49.0,47.3,30.15,WSW,249,0.0,0.0,94,0.00,,,0.00,Wunderground v.1.15,2013-10-23 04:08:00,
2013-10-22 23:13:00,49.0,47.3,30.15,WSW,249,0.0,0.0,94,0.00,,,0.00,Wunderground v.1.15,2013-10-23 04:13:00,
2013-10-22 23:18:00,49.1,47.7,30.15,WSW,253,0.0,1.0,95,0.00,,,0.00,Wunderground v.1.15,2013-10-23 04:18:00,
2013-10-22 23:23:00,49.4,48.0,30.15,NNE,12,0.0,0.0,95,0.00,,,0.00,Wunderground v.1.15,2013-10-23 04:23:00,
2013-10-22 23:28:00,49.9,48.5,30.15,ENE,67,0.0,0.0,95,0.00,,,0.00,Wunderground v.1.15,2013-10-23 04:28:00,
2013-10-22 23:33:00,50.1,48.7,30.15,ENE,67,0.0,0.0,95,0.00,,,0.00,Wunderground v.1.15,2013-10-23 04:33:00,
2013-10-22 23:38:00,50.4,48.7,30.15,ESE,115,0.0,0.0,94,0.00,,,0.00,Wunderground v.1.15,2013-10-23 04:38:00,
2013-10-22 23:43:00,50.6,48.7,30.15,ESE,113,0.0,0.0,93,0.00,,,0.00,Wunderground v.1.15,2013-10-23 04:43:00,
2013-10-22 23:48:00,50.9,48.7,30.15,East,91,0.0,1.0,92,0.00,,,0.00,Wunderground v.1.15,2013-10-23 04:48:00,
2013-10-22 23:53:00,51.1,48.9,30.15,East,91,0.0,0.0,92,0.00,,,0.00,Wunderground v.1.15,2013-10-23 04:53:00,
2013-10-22 23:58:00,51.2,48.7,30.15,SSW,210,0.0,0.0,91,0.00,,,0.00,Wunderground v.1.15,2013-10-23 04:58:00,